EN

Hourly Weather Abriola

Today, 1 December, Tuesday

Time Temperature Precipitation Wind Pressure Humidity
00:00 +1°C° 0 mm 1 mps 657 mmHg 83%
01:00 +1°C° 0 mm 1 mps 656 mmHg 83%
02:00 +1°C° 0 mm 1 mps 656 mmHg 84%
03:00 +1°C° 0 mm 1 mps 656 mmHg 85%
04:00 +1°C° 0 mm 1 mps 656 mmHg 85%
05:00 +1°C° 0 mm 1 mps 656 mmHg 86%
06:00 +1°C° 0 mm 1 mps 655 mmHg 88%
07:00 0°C° 0 mm 0 mps 655 mmHg 90%
08:00 +3°C° 0 mm 1 mps 656 mmHg 86%
09:00 +4°C° 0 mm 1 mps 657 mmHg 83%
10:00 +6°C° 0 mm 1 mps 657 mmHg 79%
11:00 +7°C° 0 mm 1 mps 657 mmHg 76%
12:00 +7°C° 0 mm 1 mps 657 mmHg 73%
13:00 +8°C° 0 mm 1 mps 656 mmHg 71%
14:00 +7°C° 0.1 mm 1 mps 656 mmHg 75%
15:00 +7°C° 0.1 mm 1 mps 655 mmHg 79%
16:00 +6°C° 0.1 mm 1 mps 655 mmHg 83%
17:00 +5°C° 0 mm 1 mps 654 mmHg 87%
18:00 +3°C° 0 mm 2 mps 654 mmHg 90%
19:00 +2°C° 0 mm 2 mps 654 mmHg 93%
20:00 +3°C° 0.1 mm 2 mps 654 mmHg 92%
21:00 +3°C° 0.1 mm 2 mps 654 mmHg 92%
22:00 +3°C° 0.1 mm 2 mps 654 mmHg 92%
23:00 +3°C° 0.1 mm 2 mps 654 mmHg 92%

Tomorrow, 2 December, Wednesday

Time Temperature Precipitation Wind Pressure Humidity
00:00 +3°C° 0.1 mm 2 mps 654 mmHg 93%
01:00 +3°C° 0.1 mm 2 mps 653 mmHg 94%
02:00 +3°C° 0 mm 2 mps 653 mmHg 94%
03:00 +3°C° 0 mm 2 mps 653 mmHg 95%
04:00 +3°C° 0 mm 2 mps 653 mmHg 95%
05:00 +3°C° 0.1 mm 2 mps 653 mmHg 95%
06:00 +3°C° 0.1 mm 2 mps 653 mmHg 94%
07:00 +3°C° 0.1 mm 2 mps 653 mmHg 94%
08:00 +4°C° 0.1 mm 2 mps 653 mmHg 90%
09:00 +5°C° 0.1 mm 2 mps 654 mmHg 87%
10:00 +6°C° 0.1 mm 2 mps 654 mmHg 83%
11:00 +6°C° 0.1 mm 2 mps 654 mmHg 80%
12:00 +7°C° 0.1 mm 2 mps 654 mmHg 76%
13:00 +8°C° 0.1 mm 2 mps 653 mmHg 73%
14:00 +7°C° 0 mm 2 mps 653 mmHg 76%
15:00 +7°C° 0 mm 2 mps 652 mmHg 79%
16:00 +6°C° 0 mm 2 mps 652 mmHg 82%
17:00 +6°C° 0 mm 2 mps 651 mmHg 83%
18:00 +5°C° 0 mm 2 mps 651 mmHg 83%
19:00 +4°C° 0 mm 3 mps 651 mmHg 84%
20:00 +4°C° 0 mm 3 mps 651 mmHg 84%
21:00 +4°C° 0 mm 3 mps 651 mmHg 84%
22:00 +3°C° 0 mm 3 mps 650 mmHg 84%
23:00 +3°C° 0.1 mm 3 mps 650 mmHg 85%

Day after tomorrow, 3 December, Thursday

Time Temperature Precipitation Wind Pressure Humidity
00:00 +4°C° 0.1 mm 3 mps 650 mmHg 86%
01:00 +4°C° 0.1 mm 3 mps 650 mmHg 87%
02:00 +4°C° 0.4 mm 3 mps 650 mmHg 88%
03:00 +4°C° 0.4 mm 3 mps 650 mmHg 89%
04:00 +4°C° 0.4 mm 3 mps 650 mmHg 90%
05:00 +4°C° 0.3 mm 3 mps 650 mmHg 91%
06:00 +4°C° 0.3 mm 2 mps 649 mmHg 92%
07:00 +4°C° 0.3 mm 2 mps 649 mmHg 93%
08:00 +5°C° 0.3 mm 2 mps 650 mmHg 90%
09:00 +6°C° 0.3 mm 2 mps 650 mmHg 87%
10:00 +7°C° 0.3 mm 2 mps 650 mmHg 85%
11:00 +6°C° 2.7 mm 2 mps 650 mmHg 86%
12:00 +7°C° 2.7 mm 1 mps 650 mmHg 88%
13:00 +7°C° 2.7 mm 1 mps 649 mmHg 90%
14:00 +6°C° 4 mm 1 mps 649 mmHg 92%
15:00 +5°C° 4 mm 1 mps 649 mmHg 93%
16:00 +5°C° 4 mm 1 mps 648 mmHg 95%
17:00 +5°C° 1.7 mm 1 mps 648 mmHg 95%
18:00 +4°C° 1.7 mm 1 mps 648 mmHg 95%
19:00 +4°C° 1.7 mm 1 mps 649 mmHg 95%
20:00 +4°C° 0.1 mm 1 mps 648 mmHg 95%
21:00 +3°C° 0.1 mm 1 mps 648 mmHg 95%
22:00 +3°C° 0.1 mm 1 mps 648 mmHg 94%
23:00 +2°C° 0 mm 1 mps 648 mmHg 94%

4 December, Friday

Time Temperature Precipitation Wind Pressure Humidity
00:00 +2°C° 0 mm 1 mps 648 mmHg 94%
01:00 +2°C° 0 mm 1 mps 648 mmHg 93%
02:00 +2°C° 0 mm 1 mps 648 mmHg 93%
03:00 +1°C° 0 mm 1 mps 648 mmHg 92%
04:00 +1°C° 0 mm 1 mps 648 mmHg 92%
05:00 -1°C° 0 mm 2 mps 648 mmHg 91%
06:00 -1°C° 0 mm 2 mps 648 mmHg 91%
07:00 -1°C° 0 mm 2 mps 648 mmHg 90%
08:00 +1°C° 0 mm 2 mps 649 mmHg 86%
09:00 +3°C° 0 mm 2 mps 649 mmHg 83%
10:00 +4°C° 0 mm 2 mps 650 mmHg 80%
11:00 +5°C° 0 mm 2 mps 650 mmHg 76%
12:00 +4°C° 0 mm 3 mps 650 mmHg 73%
13:00 +5°C° 0 mm 3 mps 650 mmHg 69%
14:00 +4°C° 0 mm 3 mps 650 mmHg 73%
15:00 +5°C° 0 mm 2 mps 650 mmHg 78%
16:00 +4°C° 0 mm 2 mps 649 mmHg 82%
17:00 +3°C° 0 mm 2 mps 649 mmHg 85%
18:00 +2°C° 0 mm 2 mps 649 mmHg 87%
19:00 +2°C° 0 mm 2 mps 649 mmHg 90%
20:00 +2°C° 0 mm 2 mps 649 mmHg 89%
21:00 +1°C° 0 mm 2 mps 649 mmHg 89%
22:00 +1°C° 0 mm 2 mps 649 mmHg 89%
23:00 +1°C° 0 mm 2 mps 649 mmHg 89%

5 December, Saturday

Time Temperature Precipitation Wind Pressure Humidity
00:00 +1°C° 0 mm 2 mps 648 mmHg 90%
01:00 +2°C° 0 mm 2 mps 648 mmHg 90%
02:00 +2°C° 0 mm 2 mps 648 mmHg 91%
03:00 +1°C° 0 mm 3 mps 648 mmHg 92%
04:00 +1°C° 0 mm 3 mps 648 mmHg 92%
05:00 +1°C° 0 mm 3 mps 648 mmHg 91%
06:00 +1°C° 0 mm 3 mps 648 mmHg 90%
07:00 +2°C° 0 mm 3 mps 648 mmHg 90%
08:00 +3°C° 0 mm 3 mps 648 mmHg 87%
09:00 +4°C° 0 mm 3 mps 648 mmHg 84%
10:00 +5°C° 0 mm 4 mps 649 mmHg 81%
11:00 +5°C° 0.1 mm 4 mps 649 mmHg 80%
12:00 +6°C° 0.1 mm 4 mps 648 mmHg 79%
13:00 +6°C° 0.1 mm 5 mps 648 mmHg 79%
14:00 +6°C° 0.1 mm 4 mps 648 mmHg 81%
15:00 +6°C° 0.1 mm 4 mps 647 mmHg 82%
16:00 +6°C° 0.1 mm 4 mps 647 mmHg 84%
17:00 +5°C° 0.7 mm 4 mps 647 mmHg 87%
18:00 +5°C° 0.7 mm 4 mps 646 mmHg 90%
19:00 +4°C° 0.7 mm 4 mps 646 mmHg 93%
20:00 +5°C° 1.1 mm 4 mps 646 mmHg 93%
21:00 +5°C° 1.1 mm 5 mps 646 mmHg 93%
22:00 +5°C° 1.1 mm 5 mps 646 mmHg 93%
23:00 +5°C° 2.1 mm 4 mps 646 mmHg 94%

6 December, Sunday

Time Temperature Precipitation Wind Pressure Humidity
00:00 +4°C° 2.1 mm 4 mps 646 mmHg 95%
01:00 +4°C° 2.1 mm 3 mps 646 mmHg 95%
02:00 +3°C° 2.7 mm 4 mps 646 mmHg 94%
03:00 +3°C° 2.7 mm 4 mps 646 mmHg 93%
04:00 +1°C° 2.7 mm 4 mps 645 mmHg 92%
05:00 0°C° 0.7 mm 4 mps 646 mmHg 91%
06:00 +1°C° 0.7 mm 3 mps 646 mmHg 90%
07:00 0°C° 0.7 mm 3 mps 646 mmHg 90%
08:00 +1°C° 0.3 mm 3 mps 647 mmHg 88%
09:00 +2°C° 0.3 mm 3 mps 647 mmHg 87%
10:00 +1°C° 0.3 mm 4 mps 648 mmHg 86%
11:00 +2°C° 0.5 mm 3 mps 648 mmHg 83%
12:00 +3°C° 0.5 mm 3 mps 649 mmHg 80%
13:00 +3°C° 0.5 mm 3 mps 649 mmHg 76%
14:00 +4°C° 0 mm 2 mps 649 mmHg 78%
15:00 +4°C° 0 mm 2 mps 649 mmHg 80%
16:00 +4°C° 0 mm 1 mps 649 mmHg 81%
17:00 +4°C° 0 mm 1 mps 649 mmHg 84%
18:00 +3°C° 0 mm 1 mps 649 mmHg 87%
19:00 +2°C° 0 mm 1 mps 650 mmHg 90%
20:00 +2°C° 0 mm 1 mps 650 mmHg 90%
21:00 +1°C° 0 mm 1 mps 650 mmHg 90%
22:00 +1°C° 0 mm 1 mps 650 mmHg 89%
23:00 +1°C° 0 mm 1 mps 650 mmHg 89%
Show more